Погода в Медвежьегорске

Погода в Медвежьегорске : погода сейчас, прогноз погоды и архив. Всё, что Вы хотите узнать о погоде в Медвежьегорске!

Хотите узнать прогноз погоды в Медвежьегорске? Тогда Вам сюда: Погода в Медвежьегорске

Поиск расширенной информации на нашем сайте:

Другие новости

Новости СМИ2

Главная страница сайта

Новости сайта

02.10.2013

Напоминаем, что на нашем новом сайте вы можете получить высокодетализированные прогнозы погоды по пунктам России, СНГ и мира (включающие важные для авиации метеовеличины, такие как направление и скорость ветра, видимость, явления погоды, количество и форма облачности, нижняя и верхняя граница облачности), а также ознакомиться с разнообразными материалами по авиационной метеорологии и подборкой полезных ссылок на эту тему.

Сайт Метеоцентр.Азия посвящён разработке технологий оптимизации авиаметеорологического обслуживания, включая проектирование и перспективное создание нескольких автоматизированных авиаметеорологических систем:
- система выпуска высокодетальных прогностических карт явлений погоды для нижнего воздушного пространства по России и ближнему зарубежью;
- система верификации прогнозов TAF (выпускаемых синоптиками официальных АМСГ РФ и ближнего зарубежья) и AUTOTAF (выпускаемых сайтом Метеоцентр.Азия) - выявление ошибок, онлайн-сопоставление с фактической погодой METAR, автоматическое внесение коррективов в прогнозы при резком отклонении фактической погоды от прогноза, подсчёт оправдываемости прогнозов по элементам и в целом;
- система обработки, анализа и отображения авиаметеорологической информации для применения провайдерами метеорологической информации.


Погода в Медвежьегорске - сегодня

Время (UTC), дата Ветер
(°,м/с) 
Видим.   Явления Облачность Т
(°С)
Тd
(°С)
f(%) Тe
(°С)
Pmin
(гПа)
dP
(гПа)
Po
(мм)
O2
(г/м3)
Тmin Tmax R s Состояние
почвы
06 18.01.17 300 (СЗ) 10 км  {ливн. осадки}  10/10 300 м 
[Frnb]
-3.5 -4.3 94 -6  1018.5  -0.5  756  309  -7.8    56  равномерный
сухой снег
100% 
09 18.01.17 300 (СЗ) 30000 м  слаб. ливневой снег  9/9 500 м кучево-дожд. 
[Cb cap]
-2.2 -3.1 94 -2  1019.7  1.2  757  308           
12 18.01.17 300 (СЗ) 20000 м  {ливн. осадки}  9/9 480 м кучево-дожд. 
[Cb cap]
-1.8 -3.2 90 -3  1019.8  0.1  757  307           
15 18.01.17 тихо ()   10 км    10/10 330 м 
[Frnb]
-2.4 -3.3 94 -2  1019.2  -0.6  757  308      0.5     
18 18.01.17 290 (З) 10 км    10/10 240 м 
[Frnb]
-1.9 -2.9 93 -1  1017.1  -2.1  755  307    -1.7  0.0     
21 18.01.17 230 (ЮЗ) 10 км    10/10 240 м 
[Frnb]
-1.7 -2.5 94 -1  1013.3  -3.8  752  305           
00 19.01.17 210 (ЮЗ) 10 км    10/10 180 м 
[Frnb]
-0.9 -1.5 96 -2  1007.5  -5.7  748  303           
03 19.01.17 290 (З) 2000 м  слаб. ливневой дождь со снегом  10/10 180 м кучево-дожд. 
[Cb cap]
+0.7 +0 95 -1  1002.9  -4.5  745  299  -2.5    0.4     
06 19.01.17 290 (З) 4-10{10}  10 км  в посл. час ливневой снег  9/9 500 м 
[Sc]
+1.7 +0.4 91 1001.5  -1.4  744  298  -1.9    55  равномерный
мокрый или
старый снег
100% 
09 19.01.17 290 (З) 3{12}  20000 м    9/0 средняя 
[Ac As]
+1.8 -0.7 83 1002.3  0.8  744  298           
12 19.01.17 290 (З) 1{10}  20000 м    10/0 средняя, верхняя 
[Ac As|Ci fib]
+1.1 -0.8 87 +2  1000.7  -1.6  743  298           
15 19.01.17 290 (З) 2000 м  слаб. ливневой снег  10/10 570 м кучево-дожд. 
[Cb cap]
+0.9 -0 94 995.2  -5.4  739  297      0.9     
18 19.01.17 300 (СЗ) 4{13}  10 км  в посл. час ливневой снег  10/10 450 м кучево-дожд. 
[Cb cap]
+1.5 -0.1 89 -1  991.2  -3.9  736  295    +2.1     
21 19.01.17 300 (СЗ) 5-12{15}  10 км    10/10 1200 м 
[Sc]
-0 -3.8 76 -3  994.4  3.1  738  298           
00 20.01.17 300 (СЗ) 5-11{13}  10 км    ясно 
-1.4 -7.4 64 -5  998.4  3.8  741  301           
03 20.01.17 310 (СЗ) 5-11{16}  10 км    ясно 
-4.3 -11.1 59 -8  1002.6  4.1  744  306  -4.3    0.0     
06 20.01.17 290 (З) 2{16}  20000 м    ясно 
-6.9 -12.7 63 -8  1005.5  2.7  746  310  -6.9      52  равномерный
мокрый или
старый снег
100% 
09 20.01.17 290 (З) 20000 м    ясно 
-7 -12.1 67 -11  1006.5  747  310           
12 20.01.17 290 (З) 20000 м    ясно 
-6.1 -9.9 74 -9  1005  -1.4  746  308           
15 20.01.17 300 (СЗ) 20000 м    ясно 
-7.2 -9.5 84 -10  1003.3  -1.8  745  309           
18 20.01.17 300 (СЗ) 10 км    8/8 900 м 
[Sc]
-5.5 -8 83 -8  1002.2  -1  744  307    -5.5       
21 20.01.17 300 (СЗ) 10 км    ясно 
-6.5 -8.9 83 -9  1002.7  0.5  744  308           
00 21.01.17 300 (СЗ) 10 км    ясно 
-7.1 -10.3 78 -11  1003.1  0.3  745  309           
03 21.01.17 300 (СЗ) 10 км    ясно 
-8.2 -11.4 78 -11  1003.4  0.3  745  310  -8.6         
06 21.01.17 300 (СЗ) 20000 м    ясно 
-8.6 -11.9 77 -12  1004.4  746  311  -8.7         
Время (UTC), дата Ветер
(°,м/с) 
Видим.   Явления Облачность Т
(°С)
Тd
(°С)
f(%) Тe
(°С)
Pmin
(гПа)
dP
(гПа)
Po
(мм)
O2
(г/м3)
Тmin Tmax R s Состояние
почвы

Для получения пояснительной информации подведите курсор к названию столбца.

ПОГОДА в Медвежьегорске - архив

Всё, что Вы хотите узнать о погоде в Медвежьегорске - удобно и подробно!

Выберите нужную дату (начиная с 1 января 2015* года) и нажмите кнопку "Найти".
Будут отображены архивные сводки погоды по пункту Медвежьегорск, начиная с указанной даты.


Отображать данные в формате CSV (для использования в таблицах Excel)


Внимание! Наш архив погоды предназначен исключительно для личного некоммерческого использования в познавательных целях. Если Вам необходимы официальные справки о состоянии погоды (для производственных, юридических, коммерческих и т.п. целей), обращайтесь в органы Росгидромета.

*Примечание: данная дата относится к архиву по метеостанциям СССР (Россия, СНГ, Балтия).
Архив по метеостанциям Зарубежной Европы и Азии (кроме Китая) хранится 10 дней, по другим регионам земного шара (Китай, Африка, Америка, Австралия, Океания) - 1 день.

Медвежьегорск - район местоположения метеостанции


Название, широта, долгота, высота метеостанции:
Медвежьегорск 62.9°ш. 34.4°д. 81 м над ур. моря [Российская Федерация]

Дополнительная информация

В oтличие oт бoльшинства пoгoдных сайтoв мы публикуем пoдрoбную метеoинфoрмацию в детальнoм прoфессиoнальнoм фoрмате.

Характеристики температуры и влажнoсти вoздуха измеряются на высoте 2 м в тени вдали oт зданий и деревьев.
Скoрoсть ветра измеряется на высoте 10 м (на урoвне рoста челoвека скoрoсть ветра ниже в 1.5-2 раза). Если метеoстанция нахoдится в гoрoде или в лесу, тo скoрoсть ветра занижена на 2-4 м/с пo сравнению с oткрытым местoм. Скoрoсть ветра над акватoриями крупных рек и oзёр, а также на вершинах хoлмoв на 2-5 м/с выше, чем в oбычных услoвиях.
Атмoсфернoе давление в разных тoчках местнoсти мoжет значительнo oтличаться oт давления на метеoстанции, в зависимoсти oт услoвий рельефа (при пoдъёме на 10 м давление пoнижается примернo на 1 мм рт.ст.).